| time (UTC) | temp F | wind direction | speed knots | gust knots | rain 1hr in | rain 24hr in | rain mn in | humidity % | barometer mb |
| 20260508100515 | 65 | 90 | 2.6 | 7.8 | 0.00 | 0.08 | 0.08 | 69 | 1012.9 |
| 20260508095515 | 65 | 113 | 2.6 | 7.0 | 0.00 | 0.08 | 0.08 | 71 | 1012.9 |
| 20260508094515 | 64 | 45 | 2.6 | 5.2 | 0.00 | 0.08 | 0.08 | 72 | 1012.9 |
| 20260508093515 | 64 | 45 | 2.6 | 6.1 | 0.00 | 0.08 | 0.08 | 74 | 1013.0 |
| 20260508092515 | 64 | 338 | 1.7 | 4.3 | 0.00 | 0.08 | 0.08 | 78 | 1012.8 |
| 20260508091535 | 63 | 45 | 1.7 | 4.3 | 0.00 | 0.08 | 0.08 | 80 | 1012.8 |
| 20260508090515 | 63 | 45 | 1.7 | 3.5 | 0.00 | 0.08 | 0.08 | 82 | 1012.9 |
| 20260508085517 | 62 | 90 | 0.9 | 3.5 | 0.01 | 0.08 | 0.08 | 83 | 1012.9 |
| 20260508084517 | 62 | 68 | 2.6 | 4.3 | 0.01 | 0.08 | 0.08 | 82 | 1013.0 |
| 20260508083517 | 62 | 68 | 1.7 | 3.5 | 0.01 | 0.08 | 0.08 | 82 | 1013.0 |
| 20260508082517 | 61 | 68 | 1.7 | 4.3 | 0.01 | 0.08 | 0.08 | 83 | 1013.0 |
| 20260508081517 | 62 | 0 | 0.9 | 3.5 | 0.01 | 0.08 | 0.08 | 83 | 1013.2 |
| 20260508080517 | 62 | 0.0 | 1.7 | 0.01 | 0.08 | 0.08 | 84 | 1013.2 | |
| 20260508075517 | 62 | 0 | 0.9 | 1.7 | 0.00 | 0.07 | 0.07 | 84 | 1013.0 |
| 20260508074517 | 61 | 0 | 0.9 | 2.6 | 0.02 | 0.07 | 0.07 | 84 | 1013.0 |
| 20260508073517 | 62 | 0 | 0.9 | 1.7 | 0.03 | 0.07 | 0.07 | 85 | 1012.9 |
| 20260508072517 | 61 | 0 | 0.9 | 2.6 | 0.05 | 0.07 | 0.07 | 84 | 1012.8 |
| 20260508071517 | 62 | 0 | 0.9 | 3.5 | 0.06 | 0.07 | 0.07 | 83 | 1013.1 |
| 20260508070517 | 62 | 338 | 0.9 | 1.7 | 0.07 | 0.07 | 0.07 | 83 | 1013.0 |
| 20260508065537 | 62 | 0.0 | 0.9 | 0.07 | 0.07 | 0.07 | 82 | 1012.9 | |
| 20260508064537 | 62 | 0.0 | 1.7 | 0.06 | 0.06 | 0.06 | 81 | 1012.5 | |
| 20260508063517 | 62 | 0.0 | 0.9 | 0.04 | 0.04 | 0.04 | 80 | 1012.5 | |
| 20260508062517 | 62 | 338 | 0.9 | 2.6 | 0.02 | 0.02 | 0.02 | 78 | 1012.5 |
| 20260508061517 | 62 | 0.0 | 0.9 | 0.02 | 0.02 | 0.02 | 78 | 1012.2 | |
| 20260508060517 | 62 | 0.0 | 1.7 | 0.00 | 0.00 | 0.00 | 77 | 1011.9 | |
| 20260508055517 | 61 | 338 | 2.6 | 4.3 | 0.00 | 0.00 | 0.00 | 77 | 1011.8 |
| 20260508054557 | 61 | 315 | 2.6 | 4.3 | 0.00 | 0.00 | 0.00 | 78 | 1011.6 |
| 20260508053517 | 61 | 293 | 0.9 | 2.6 | 0.00 | 0.00 | 0.00 | 78 | 1011.1 |
| 20260508052517 | 61 | 23 | 0.9 | 3.5 | 0.00 | 0.00 | 0.00 | 77 | 1011.1 |
| 20260508051517 | 61 | 23 | 0.9 | 2.6 | 0.00 | 0.00 | 0.00 | 77 | 1011.1 |
| 20260508050517 | 61 | 23 | 0.9 | 1.7 | 0.00 | 0.00 | 0.00 | 77 | 1011.1 |
| 20260508045537 | 61 | 0 | 0.9 | 2.6 | 0.00 | 0.00 | 0.00 | 77 | 1011.0 |
| 20260508044517 | 61 | 338 | 1.7 | 5.2 | 0.00 | 0.00 | 0.00 | 77 | 1011.0 |
| 20260508043517 | 61 | 68 | 0.9 | 2.6 | 0.00 | 0.00 | 0.00 | 77 | 1011.2 |
| 20260508042516 | 61 | 45 | 1.7 | 4.3 | 0.00 | 0.00 | 0.00 | 77 | 1011.3 |
| 20260508041517 | 61 | 90 | 1.7 | 3.5 | 0.00 | 0.00 | 0.00 | 77 | 1011.3 |
| 20260508040517 | 61 | 0.0 | 0.0 | 0.00 | 0.00 | 0.00 | 77 | 1011.5 | |
| 20260508035517 | 61 | 0.0 | 0.0 | 0.00 | 0.00 | 0.00 | 77 | 1011.4 | |
| 20260508034517 | 61 | 0.0 | 0.0 | 0.00 | 0.00 | 0.00 | 76 | 1011.3 | |
| 20260508033516 | 61 | 0.0 | 0.0 | 0.00 | 0.00 | 0.00 | 76 | 1011.5 | |
| 20260508032516 | 61 | 0.0 | 0.0 | 0.00 | 0.00 | 0.00 | 76 | 1011.4 | |
| 20260508031517 | 61 | 0 | 0.9 | 2.6 | 0.00 | 0.00 | 0.00 | 76 | 1011.4 |
| 20260508030517 | 61 | 315 | 0.9 | 2.6 | 0.00 | 0.00 | 0.00 | 76 | 1011.3 |
| 20260508025516 | 61 | 0.0 | 1.7 | 0.00 | 0.00 | 0.00 | 76 | 1011.4 | |
| 20260508024516 | 61 | 0 | 0.9 | 4.3 | 0.00 | 0.00 | 0.00 | 76 | 1011.5 |
| 20260508023516 | 61 | 45 | 0.9 | 1.7 | 0.00 | 0.00 | 0.00 | 76 | 1011.3 |
| 20260508022516 | 61 | 315 | 0.9 | 2.6 | 0.00 | 0.00 | 0.00 | 76 | 1011.4 |
| 20260508021517 | 61 | 0.0 | 0.9 | 0.00 | 0.00 | 0.00 | 76 | 1011.6 | |
| 20260508020536 | 62 | 45 | 0.9 | 1.7 | 0.00 | 0.00 | 0.00 | 75 | 1011.6 |
| 20260508015516 | 62 | 90 | 1.7 | 3.5 | 0.00 | 0.00 | 0.00 | 75 | 1011.5 |
| 20260508014516 | 62 | 0 | 0.9 | 1.7 | 0.00 | 0.00 | 0.00 | 75 | 1011.5 |
| 20260508013536 | 62 | 338 | 0.9 | 2.6 | 0.00 | 0.00 | 0.00 | 75 | 1011.8 |
| 20260508012536 | 62 | 338 | 0.9 | 2.6 | 0.00 | 0.00 | 0.00 | 75 | 1012.0 |
| 20260508011516 | 62 | 315 | 2.6 | 7.0 | 0.00 | 0.00 | 0.00 | 75 | 1011.9 |
| 20260508010516 | 62 | 23 | 0.9 | 2.6 | 0.00 | 0.00 | 0.00 | 77 | 1012.2 |
| 20260508005516 | 62 | 293 | 0.9 | 2.6 | 0.00 | 0.00 | 0.00 | 77 | 1012.3 |
| 20260508004516 | 62 | 68 | 0.9 | 3.5 | 0.00 | 0.00 | 0.00 | 76 | 1012.5 |
| 20260508003516 | 62 | 68 | 0.9 | 2.6 | 0.00 | 0.00 | 0.00 | 76 | 1012.5 |
| 20260508002516 | 62 | 0.0 | 1.7 | 0.00 | 0.00 | 0.00 | 75 | 1012.3 | |
| 20260508001536 | 62 | 68 | 0.9 | 1.7 | 0.00 | 0.00 | 0.00 | 75 | 1012.4 |
| 20260508000516 | 62 | 68 | 0.9 | 1.7 | 0.00 | 0.00 | 0.00 | 75 | 1012.6 |
| 20260507235515 | 63 | 0.0 | 0.0 | 0.00 | 0.00 | 0.00 | 76 | 1012.7 | |
| 20260507234515 | 63 | 135 | 0.9 | 1.7 | 0.00 | 0.00 | 0.00 | 76 | 1012.8 |
| 20260507233515 | 63 | 135 | 0.9 | 1.7 | 0.00 | 0.00 | 0.00 | 75 | 1012.8 |
| 20260507232515 | 63 | 0.0 | 1.7 | 0.00 | 0.00 | 0.00 | 75 | 1012.7 | |
| 20260507231515 | 63 | 135 | 0.9 | 2.6 | 0.00 | 0.00 | 0.00 | 75 | 1012.6 |
| 20260507230517 | 63 | 0.0 | 0.9 | 0.00 | 0.00 | 0.00 | 75 | 1012.6 | |
| 20260507225557 | 63 | 0.0 | 1.7 | 0.00 | 0.00 | 0.00 | 75 | 1012.6 | |
| 20260507224517 | 63 | 45 | 0.9 | 2.6 | 0.00 | 0.00 | 0.00 | 75 | 1012.7 |
| 20260507223517 | 63 | 68 | 0.9 | 2.6 | 0.00 | 0.00 | 0.00 | 75 | 1012.7 |
| 20260507222517 | 63 | 68 | 0.9 | 2.6 | 0.00 | 0.00 | 0.00 | 75 | 1013.0 |
| 20260507221517 | 63 | 338 | 1.7 | 5.2 | 0.00 | 0.00 | 0.00 | 76 | 1013.0 |
| 20260507220537 | 64 | 45 | 0.9 | 1.7 | 0.00 | 0.00 | 0.00 | 77 | 1013.0 |
| 20260507215617 | 64 | 45 | 0.9 | 3.5 | 0.00 | 0.00 | 0.00 | 78 | 1013.1 |
| 20260507214517 | 64 | 45 | 2.6 | 4.3 | 0.00 | 0.00 | 0.00 | 78 | 1013.0 |
| 20260507213517 | 64 | 45 | 1.7 | 4.3 | 0.00 | 0.00 | 0.00 | 78 | 1013.0 |
| 20260507212517 | 64 | 113 | 1.7 | 5.2 | 0.00 | 0.00 | 0.00 | 79 | 1012.7 |
| 20260507211557 | 64 | 90 | 1.7 | 7.0 | 0.00 | 0.00 | 0.00 | 78 | 1012.5 |
| 20260507210517 | 64 | 68 | 1.7 | 4.3 | 0.00 | 0.00 | 0.00 | 79 | 1012.4 |
| 20260507205537 | 65 | 68 | 2.6 | 4.3 | 0.00 | 0.00 | 0.00 | 79 | 1012.1 |
| 20260507204517 | 65 | 68 | 1.7 | 5.2 | 0.00 | 0.00 | 0.00 | 78 | 1012.0 |
| 20260507203517 | 65 | 68 | 1.7 | 3.5 | 0.00 | 0.00 | 0.00 | 78 | 1011.8 |
| 20260507202517 | 66 | 113 | 0.9 | 4.3 | 0.00 | 0.00 | 0.00 | 76 | 1011.8 |
| 20260507201517 | 66 | 225 | 0.9 | 1.7 | 0.00 | 0.00 | 0.00 | 69 | 1011.6 |
| 20260507200517 | 66 | 0.0 | 1.7 | 0.00 | 0.00 | 0.00 | 70 | 1011.6 | |
| 20260507195517 | 66 | 225 | 0.9 | 2.6 | 0.00 | 0.00 | 0.00 | 71 | 1011.4 |
| 20260507194517 | 66 | 225 | 0.9 | 3.5 | 0.00 | 0.00 | 0.00 | 75 | 1011.3 |
| 20260507193517 | 66 | 225 | 1.7 | 2.6 | 0.00 | 0.00 | 0.00 | 77 | 1011.1 |
| 20260507192517 | 66 | 225 | 0.9 | 2.6 | 0.00 | 0.00 | 0.00 | 76 | 1011.1 |
| 20260507191517 | 66 | 225 | 1.7 | 4.3 | 0.00 | 0.00 | 0.00 | 76 | 1011.0 |
| 20260507190537 | 66 | 225 | 1.7 | 3.5 | 0.00 | 0.00 | 0.00 | 75 | 1010.8 |
| 20260507185517 | 66 | 203 | 0.9 | 1.7 | 0.00 | 0.00 | 0.00 | 76 | 1010.7 |
| 20260507184516 | 66 | 225 | 0.9 | 1.7 | 0.00 | 0.00 | 0.00 | 77 | 1010.6 |
| 20260507183516 | 66 | 248 | 2.6 | 6.1 | 0.00 | 0.00 | 0.00 | 77 | 1010.5 |
| 20260507182517 | 66 | 203 | 1.7 | 5.2 | 0.00 | 0.00 | 0.00 | 77 | 1010.6 |
| 20260507181516 | 66 | 248 | 2.6 | 5.2 | 0.00 | 0.00 | 0.00 | 77 | 1010.5 |
| 20260507180517 | 66 | 203 | 2.6 | 6.1 | 0.00 | 0.00 | 0.00 | 75 | 1010.5 |
| 20260507175516 | 66 | 225 | 2.6 | 4.3 | 0.00 | 0.00 | 0.00 | 72 | 1010.4 |
| 20260507174517 | 66 | 248 | 2.6 | 5.2 | 0.00 | 0.00 | 0.00 | 72 | 1010.3 |
| 20260507173536 | 66 | 225 | 1.7 | 4.3 | 0.00 | 0.00 | 0.00 | 73 | 1010.3 |
| 20260507172536 | 66 | 180 | 3.5 | 7.0 | 0.00 | 0.00 | 0.00 | 74 | 1010.2 |
| 20260507171516 | 67 | 158 | 2.6 | 7.8 | 0.00 | 0.00 | 0.00 | 72 | 1010.2 |
| 20260507170516 | 67 | 203 | 2.6 | 7.0 | 0.00 | 0.00 | 0.00 | 70 | 1010.1 |
| 20260507165516 | 68 | 180 | 2.6 | 6.1 | 0.00 | 0.00 | 0.00 | 69 | 1010.1 |
| 20260507164517 | 67 | 203 | 2.6 | 6.1 | 0.00 | 0.00 | 0.00 | 67 | 1010.1 |
| 20260507163517 | 68 | 158 | 4.3 | 8.7 | 0.00 | 0.00 | 0.00 | 64 | 1010.1 |
| 20260507162517 | 68 | 158 | 3.5 | 7.8 | 0.00 | 0.00 | 0.00 | 64 | 1010.0 |
| 20260507161517 | 68 | 225 | 4.3 | 10.4 | 0.00 | 0.00 | 0.00 | 68 | 1009.8 |
| 20260507160516 | 68 | 180 | 3.5 | 7.0 | 0.00 | 0.00 | 0.00 | 72 | 1009.7 |
| 20260507155536 | 68 | 225 | 3.5 | 7.0 | 0.00 | 0.00 | 0.00 | 72 | 1009.8 |
| 20260507154516 | 69 | 225 | 3.5 | 11.3 | 0.00 | 0.00 | 0.00 | 71 | 1009.7 |
| 20260507153516 | 69 | 203 | 3.5 | 8.7 | 0.00 | 0.00 | 0.00 | 71 | 1009.7 |
| 20260507152556 | 70 | 248 | 3.5 | 8.7 | 0.00 | 0.00 | 0.00 | 71 | 1009.8 |
| 20260507151516 | 70 | 248 | 3.5 | 7.8 | 0.00 | 0.00 | 0.00 | 71 | 1009.7 |
| 20260507150516 | 70 | 270 | 3.5 | 7.8 | 0.00 | 0.00 | 0.00 | 68 | 1009.7 |
| 20260507145516 | 70 | 225 | 2.6 | 6.1 | 0.00 | 0.00 | 0.00 | 68 | 1009.6 |
| 20260507144516 | 70 | 180 | 3.5 | 9.6 | 0.00 | 0.00 | 0.00 | 65 | 1009.7 |
| 20260507143536 | 71 | 158 | 3.5 | 9.6 | 0.00 | 0.00 | 0.00 | 65 | 1009.8 |
| 20260507142536 | 70 | 158 | 2.6 | 7.0 | 0.00 | 0.00 | 0.00 | 62 | 1009.8 |
| 20260507141616 | 69 | 0 | 1.7 | 4.3 | 0.00 | 0.00 | 0.00 | 62 | 1009.9 |
| 20260507140516 | 69 | 135 | 2.6 | 6.1 | 0.00 | 0.00 | 0.00 | 62 | 1010.1 |
| 20260507135516 | 69 | 180 | 1.7 | 5.2 | 0.00 | 0.00 | 0.00 | 69 | 1010.2 |
| 20260507134516 | 69 | 248 | 2.6 | 7.0 | 0.00 | 0.00 | 0.00 | 69 | 1010.3 |
| 20260507133516 | 68 | 248 | 2.6 | 6.1 | 0.00 | 0.00 | 0.00 | 70 | 1010.3 |
| 20260507132516 | 68 | 225 | 2.6 | 5.2 | 0.00 | 0.00 | 0.00 | 73 | 1010.3 |
| 20260507131516 | 67 | 225 | 2.6 | 5.2 | 0.00 | 0.00 | 0.00 | 74 | 1010.3 |
| 20260507130516 | 67 | 180 | 3.5 | 7.8 | 0.00 | 0.00 | 0.00 | 74 | 1010.3 |
| 20260507125516 | 67 | 248 | 2.6 | 7.0 | 0.00 | 0.00 | 0.00 | 75 | 1010.4 |
| 20260507124536 | 68 | 225 | 5.2 | 9.6 | 0.00 | 0.00 | 0.00 | 72 | 1010.5 |
| 20260507123516 | 68 | 158 | 3.5 | 8.7 | 0.00 | 0.00 | 0.00 | 74 | 1010.6 |
| 20260507122536 | 67 | 180 | 5.2 | 11.3 | 0.00 | 0.00 | 0.00 | 74 | 1010.7 |
| 20260507121516 | 68 | 248 | 4.3 | 12.2 | 0.00 | 0.00 | 0.00 | 73 | 1010.7 |
| 20260507120516 | 67 | 248 | 4.3 | 7.8 | 0.00 | 0.00 | 0.00 | 74 | 1010.8 |
| 20260507115556 | 67 | 180 | 5.2 | 13.0 | 0.00 | 0.00 | 0.00 | 73 | 1010.9 |
| 20260507114516 | 67 | 225 | 6.1 | 11.3 | 0.00 | 0.00 | 0.00 | 74 | 1011.0 |
| 20260507113536 | 68 | 203 | 4.3 | 8.7 | 0.00 | 0.00 | 0.00 | 72 | 1011.0 |
| 20260507112516 | 68 | 225 | 3.5 | 6.1 | 0.00 | 0.00 | 0.00 | 71 | 1011.1 |
| 20260507111556 | 67 | 248 | 2.6 | 7.0 | 0.00 | 0.00 | 0.00 | 71 | 1011.0 |
| 20260507110516 | 68 | 225 | 4.3 | 8.7 | 0.00 | 0.00 | 0.00 | 71 | 1011.0 |
| 20260507105516 | 68 | 203 | 3.5 | 7.8 | 0.00 | 0.00 | 0.00 | 70 | 1010.8 |
| 20260507104516 | 68 | 180 | 4.3 | 10.4 | 0.00 | 0.00 | 0.00 | 68 | 1010.9 |
| 20260507103515 | 69 | 203 | 4.3 | 13.0 | 0.00 | 0.00 | 0.00 | 66 | 1010.8 |
| 20260507102515 | 70 | 203 | 4.3 | 9.6 | 0.00 | 0.00 | 0.00 | 62 | 1010.7 |
| 20260507101516 | 71 | 135 | 6.1 | 12.2 | 0.00 | 0.00 | 0.00 | 59 | 1010.8 |